Flag for USA Past Weather in Avalon (Santa Catalina Island), California, USA — Yesterday and Last 2 Weeks

Now
47 °F

Sunny.


Feels Like: 44 °F
Forecast: 48 / 56 °F
Wind: 6 mph from Southwest

Location: Catalina Airport

Current Time: Feb 25, 2017 at 8:34:05 am

Latest Report: Feb 25, 2017 at 7:51 am


Visibility: 10 mi

Pressure: 30.13 "Hg

Humidity: 86%

Dew Point: 43 °F

Location of Avalon (Santa Catalina Island)Location

Past Weather in Avalon (Santa Catalina Island) — Graph

°F

Avalon (Santa Catalina Island) Temperature Yesterday

Maximum temperature yesterday: 53 °F (at 1:51 pm)
Minimum temperature yesterday: 43 °F (at 5:51 am)
Average temperature yesterday: 48 °F

High & Low Weather Summary for the Past Weeks

 TemperatureHumidityPressure
High73 °F (Feb 15, 11:51 am)100% (Feb 10, 8:39 am)30.35 "Hg (Feb 10, 8:39 am)
Low43 °F (Feb 24, 5:51 am)22% (Feb 15, 11:51 am)29.44 "Hg (Feb 17, 7:35 pm)
Average53 °F82%29.99 "Hg
* Reported Feb 10 6:51 am — Feb 25 6:51 am, Avalon (Santa Catalina Island), Weather by CustomWeather, © 2017

Note: Actual official high and low records may vary slightly from our data, if they occured in-between our weather recording intervals... More about our weather records

Advertising

Avalon (Santa Catalina Island) Weather History for the Previous 24 Hours

Scroll right to see more
 ConditionsComfort  
Time TempWeatherWind HumidityBarometerVisibility
6:51 am
Sat, Feb 25
45 °FSunny.7 mph76%30.11 "Hg10 mi
5:51 am45 °FClear.5 mph68%30.10 "Hg10 mi
4:51 am45 °FClear.8 mph63%30.12 "Hg10 mi
3:51 am46 °FClear.No wind56%30.10 "Hg10 mi
2:51 am46 °FClear.3 mph58%30.11 "Hg10 mi
1:51 am45 °FClear.3 mph60%30.14 "Hg10 mi
12:51 am46 °FClear.3 mph71%30.15 "Hg10 mi
11:51 pm
Fri, Feb 24
46 °FClear.5 mph58%30.16 "Hg10 mi
10:51 pm45 °FClear.6 mph71%30.17 "Hg10 mi
9:51 pm49 °FClear.3 mph26%30.16 "Hg10 mi
8:51 pm49 °FClear.3 mph32%30.16 "Hg10 mi
7:51 pm46 °FClear.5 mph73%30.16 "Hg10 mi
6:51 pm46 °FClear.7 mph73%30.15 "Hg10 mi
5:51 pm47 °FClear.9 mph66%30.16 "Hg10 mi
4:51 pm49 °FSunny.12 mph59%30.14 "Hg10 mi
3:51 pm51 °FSunny.12 mph56%30.14 "Hg10 mi
2:51 pm52 °FSunny.9 mph53%30.14 "Hg10 mi
1:51 pm53 °FSunny.8 mph51%30.14 "Hg10 mi
12:51 pm52 °FSunny.5 mph55%30.16 "Hg10 mi
11:51 am51 °FSunny.6 mph50%30.18 "Hg10 mi
10:51 am51 °FSunny.7 mph46%30.18 "Hg10 mi
9:51 am50 °FSunny.8 mph43%30.18 "Hg10 mi
8:51 am48 °FSunny.8 mph56%30.18 "Hg10 mi
Weather by CustomWeather, © 2017

See weather overviewHow to use our weather pages